Location: ???????
(52.3000°N, 54.4667°E)
Time: 13:20:58
(UTC+00:00)

Cosmos 1943 - Pass Details

Date: 24 January 2020
Orbit: 833 x 850 km, 71.0° (Epoch: 20 February)

Event Time Altitude Azimuth Distance (km) Brightness Sun altitude
Rises 14:41:13 0° 329° (NNW) 3,399 6.6 -16.2°
Reaches altitude 10° 14:43:52 10° 338° (NNW) 2,464 5.8 -16.6°
Maximum altitude 14:49:05 37° 46° (NE) 1,287 3.7 -17.4°
Enters shadow 14:50:54 30° 83° (E) 1,479 3.9 -17.6°
